Flag for Canada Weather past 2 weeks in Caledon, Ontario, Canada

Now
81 °F

Sunny.


Feels Like: 85 °F
Forecast: 67 / 85 °F
Wind: 2 mph from Northeast

Location: Borden

Current Time: Sep 3, 2015 at 3:28:48 PM

Latest Report: Sep 3, 2015 at 3:00 PM


Visibility: 9 mi

Pressure: 29.95 "Hg

Humidity: 74%

Dew point: 72 °F

Location of CaledonLocation

Historic Weather in Caledon — Graph

°F

Caledon temperature yesterday

Maximum temperature yesterday: 90 °F (at 3:00 PM)
Minimum temperature yesterday: 61 °F (at 12:02 AM)
Average temperature yesterday: 72 °F

Past Weeks' High & Low Weather Summary

 TemperatureHumidityPressure
High90 °F (Sep 2, 3:00 PM)100% (Aug 20, 5:00 AM)30.22 "Hg (Aug 20, 5:00 AM)
Low43 °F (Aug 22, 6:00 AM)41% (Aug 24, 3:00 PM)29.66 "Hg (Aug 20, 7:00 AM)
Average65 °F84%30.00 "Hg
* Reported Aug 19 2:00 PM — Sep 3 2:04 PM, Caledon, Weather by CustomWeather, © 2015

Note: Actual official high and low records may vary slightly from our data, if they occured in-between our weather recording intervals... More about our weather records

Advertising

Caledon weather history for previous 24 hours

 ConditionsComfort  
Time TempWeatherWind HumidityBarometerVisibility
2:04 PM
Thu, Sep 3
79 °FScattered clouds.9 mph79%29.96 "Hg8 mi
2:00 PM77 °FPartly sunny.5 mph83%29.96 "Hg8 mi
1:00 PM73 °FLow clouds.5 mph94%29.97 "Hg5 mi
12:00 PM73 °FLow clouds.3 mph94%29.97 "Hg4 mi
11:00 AM72 °FLow clouds.No wind100%29.98 "Hg3 mi
10:56 AM72 °FLow clouds.2 mph100%29.98 "Hg3 mi
10:01 AM70 °FLow clouds.2 mph100%29.98 "Hg2 mi
9:00 AM70 °FLow clouds.3 mph100%29.97 "Hg1 mi
8:03 AM70 °FLow clouds.No wind100%29.97 "Hg2 mi
7:00 AM68 °FLow clouds.2 mph100%29.95 "Hg1 mi
6:00 AM68 °FLow clouds.2 mph100%29.93 "Hg1 mi
5:00 AM66 °FDense fog.No wind100%29.94 "Hg0 mi
4:00 AM68 °FOvercast.No wind100%29.93 "Hg0 mi
3:04 AM68 °FMostly cloudy.No wind100%29.94 "Hg0 mi
3:01 AM66 °FLow clouds.No wind100%29.94 "Hg0 mi
2:00 AM66 °FDense fog.No wind100%29.93 "Hg0 mi
1:58 AM66 °FMostly cloudy.No wind100%29.94 "Hg0 mi
1:03 AM68 °FDense fog.No wind100%29.95 "Hg1 mi
12:01 AM68 °FClear.No wind100%29.94 "Hg0 mi
11:00 PM
Wed, Sep 2
70 °FClear.2 mph94%29.96 "Hg2 mi
10:00 PM72 °FClear.No wind94%29.96 "Hg4 mi
9:00 PM73 °FClear.No wind89%29.94 "Hg6 mi
8:00 PM77 °FSunny.No wind83%29.92 "Hg9 mi
7:00 PM81 °FScattered clouds.2 mph74%29.92 "Hg9 mi
6:00 PM84 °FScattered clouds.6 mph66%29.92 "Hg9 mi
5:00 PM86 °FPassing clouds.5 mph62%29.93 "Hg9 mi
4:00 PM84 °FPartly sunny.6 mph66%29.94 "Hg9 mi
3:00 PM90 °FScattered clouds.10 mph49%29.96 "Hg9 mi
Weather by CustomWeather, © 2015

See weather overviewHow to use our weather pages